Vertical_Velocity
-2 -0 0 -2 -2 0 1 1 -1 -0 -0 1 -3 1 1 3 -0 -1 -12 -3 -0 5 1 3 3 8 1 -1 -0 5 -4 -1 -2 -1 3 2 -4 8 1 -11 7 3 -12 -5 1
-1 -0 -2 -0 -2 -0 2 -2 0 1 -0 -1 -0 -1 4 0 -0 -6 -1 -2 1 0 -3 -3 -3 2 1 2 -1 -1 -1 -2 -4 -1 -1 -0 -5 -2 -3 2 5 -2 12 11 -1
-1 -1 1 -2 -3 1 1 0 -0 3 -0 -2 1 3 -0 -0 -2 -24 5 -4 -1 1 6 8 9 5 3 2 -1 0 -3 -2 4 0 -2 -1 1 -1 -4 -0 -0 -14 -5 1 1
-2 -1 0 -1 -1 0 0 2 2 2 0 -1 4 -0 -1 -1 -6 -4 -0 -0 2 4 3 4 3 -0 1 -0 -1 -0 1 1 3 -0 2 -1 0 -0 -1 -3 -6 -8 -4 -5 -2
-3 -1 0 -0 -1 1 0 1 1 1 -1 2 3 -3 -1 -0 -17 1 5 2 4 5 2 4 1 1 -0 1 1 -1 0 -0 2 1 -1 1 0 -2 1 -3 3 4 3 -0 0
-2 0 -0 -1 1 0 -0 0 1 2 0 2 -2 -0 -1 -2 8 4 8 4 6 1 1 8 -3 3 2 -3 -2 -1 -1 -0 3 -0 -1 -4 0 -3 4 5 6 2 -1 -2 -3
-2 -1 1 0 1 -1 -1 2 1 1 0 0 -1 -1 -1 -26 -3 -1 8 6 10 5 1 11 -4 9 -1 -0 7 0 -4 -1 -0 -0 -0 -2 -3 -1 -1 10 -2 1 -2 2 -2
-1 -1 2 1 1 -0 2 1 1 1 1 -0 -0 -1 -12 1 2 -4 6 3 12 18 10 3 8 0 -0 8 1 -4 -6 -1 -4 0 0 -5 -6 -3 3 0 0 -0 1 -0 5
-2 0 2 3 -1 -2 0 3 1 2 -0 1 0 1 -14 -2 -3 3 -2 2 -4 0 -1 3 -7 2 -2 -3 -5 -4 -2 0 -3 -1 -0 -4 -2 -3 1 1 2 13 18 2 6
-0 3 3 -0 -2 -1 3 1 3 -1 1 1 0 0 -5 -9 -4 -4 -3 -1 -3 -4 -6 -5 -4 -3 -3 -5 -5 -3 1 1 -2 -4 1 1 -0 -0 6 3 1 3 6 1 7
3 0 2 -2 -2 2 0 1 1 3 0 -6 -1 -2 1 2 -0 -8 -4 -0 3 -1 -1 -1 -9 -2 -2 -1 -2 -0 1 -1 1 -0 -3 1 0 2 5 -2 0 3 -0 -0 -2
5 -2 4 -3 -0 -1 1 2 1 5 -6 -2 2 -2 11 8 -1 -1 5 -2 0 -1 -0 -9 -2 -2 0 -1 -1 -0 -1 -1 -1 -0 -7 -0 2 1 2 3 -2 -2 3 -0 3
4 -1 -0 -1 0 0 0 3 3 1 2 0 -0 7 1 5 1 1 1 -0 0 -1 0 -4 -6 0 -2 -1 -3 0 -2 0 -2 -0 -2 -6 -3 1 4 -0 4 5 3 6 2
2 1 1 -1 1 -1 -5 -2 6 3 -8 -7 -3 -4 -6 2 -3 2 1 -1 -3 -4 -1 -1 0 -1 -1 -1 -1 -1 -0 -1 -0 -3 -4 -6 1 -1 2 4 0 3 2 1 -2
-0 -2 -1 -1 1 -2 -0 0 3 9 -10 -12 -1 1 -2 -2 -2 -1 0 0 -0 -0 -12 -8 -1 -1 -1 0 -1 -5 0 -0 -0 -1 -3 -1 -10 0 0 3 3 4 3 2 6
-2 2 0 -1 -1 -1 -2 -0 6 -27 -8 -1 0 -1 -2 1 0 1 2 -1 5 -3 -2 1 2 -2 -0 -0 0 -1 -1 -3 -1 -1 -5 -2 -8 -0 -1 -3 2 4 6 2 1
-1 3 -4 -2 -2 -2 1 2 -17 -10 -4 2 -2 0 -1 0 2 -2 -2 -4 -4 -8 -3 -2 -1 -2 -0 -4 -4 -6 -5 -4 -8 -8 -6 -0 -7 -2 0 0 -4 -1 2 1 -3
-1 -0 0 1 -2 -1 -2 -12 -2 -5 -2 -1 -1 0 -3 -2 -1 -0 -1 -2 -4 -2 -1 -2 -11 -2 -4 -1 -1 1 -5 -7 -4 -3 -3 -2 0 -5 0 0 -1 2 1 1 2
0 1 1 -1 1 1 -3 -5 -9 -2 -4 -2 0 -2 1 1 -9 -5 -0 -0 1 -0 -7 -2 -1 -1 -0 -0 -4 -4 -5 -5 -5 -1 -4 -1 0 -4 1 2 1 -2 -8 11 13
-0 -2 -4 -1 2 -1 -9 -4 -1 1 -0 -2 -3 -5 -1 -1 -2 -3 -1 -0 -0 1 -0 -0 -3 -1 -1 -5 -5 -9 -4 -12 -6 -4 -1 -2 -0 -4 1 2 2 1 4 3 -1
4 -3 -1 -2 2 -3 -5 -4 0 3 -3 -3 -1 0 -2 -3 -2 1 2 -0 -1 -1 -1 -1 -9 -9 -6 -3 -0 -8 -2 -3 -8 -4 -5 -2 -8 -3 -1 -0 -0 2 4 2 4
0 -5 4 3 -6 1 -1 -2 1 1 -0 -1 -3 -1 -1 -0 -0 -1 -1 1 2 1 -1 1 -3 -2 -1 -2 0 -1 -1 -2 -7 -2 -1 -5 -10 0 -1 -2 -5 2 1 1 -0
-4 0 5 2 -5 -2 -3 -1 -0 -0 -0 -0 -0 -1 -0 -1 -8 -1 0 2 -0 -1 0 0 -3 -3 -11 -13 -8 -2 1 -1 -1 -3 -1 -6 -11 0 1 2 6 -3 2 2 0
-1 -6 2 1 2 -3 0 -0 0 1 -0 -0 -1 -3 -3 -1 -1 -0 1 0 -1 -1 0 -2 -1 -6 -9 -8 -3 -1 -0 0 -4 -3 -3 -6 -2 2 2 0 4 3 3 2 1
-2 -4 -6 -5 -4 0 0 -1 -0 -1 -0 -0 -2 -2 -3 -1 -0 -0 0 1 -1 -0 0 -5 -2 -1 0 0 -0 -0 -0 0 -0 -2 -6 -8 -1 0 -0 -1 3 4 2 -1 -3
-3 -4 4 1 4 2 -0 -1 -2 0 -4 -1 -1 1 -1 -3 -7 -3 -4 -2 -4 1 -1 -1 -1 -0 -0 -1 -0 -0 -0 0 -0 0 1 -1 1 -0 5 -0 0 0 1 -2 -2
2 3 2 2 1 -4 -3 -1 -3 -3 2 0 -8 -5 -3 1 1 3 1 -1 -3 -4 -0 -2 -2 -2 -2 0 -2 -8 -3 -0 0 -0 -1 -1 -5 0 2 1 -1 -1 -1 -1 -2
Height
1519 1518 1516 1515 1514 1514 1513 1514 1515 1516 1516 1516 1516 1516 1516 1516 1515 1514 1510 1512 1513 1514 1516 1518 1519 1521 1522 1522 1522 1523 1530 1535 1525 1526 1523 1524 1519 1523 1526 1528 1530 1531 1532 1539 1547
1515 1513 1512 1511 1510 1511 1511 1512 1513 1513 1513 1514 1514 1515 1515 1515 1513 1510 1509 1510 1511 1512 1514 1516 1517 1520 1519 1520 1521 1522 1527 1522 1513 1518 1520 1520 1520 1522 1524 1526 1531 1533 1537 1542 1547
1510 1509 1508 1507 1507 1507 1508 1509 1510 1511 1511 1512 1512 1514 1514 1513 1513 1505 1507 1507 1509 1510 1513 1515 1517 1519 1519 1518 1517 1517 1523 1513 1508 1513 1516 1517 1518 1521 1525 1529 1529 1532 1538 1543 1546
1506 1505 1504 1503 1503 1504 1505 1507 1508 1509 1510 1510 1512 1513 1513 1514 1515 1504 1505 1506 1508 1509 1511 1512 1515 1518 1516 1515 1515 1516 1514 1511 1513 1515 1517 1517 1518 1523 1524 1523 1526 1530 1533 1540 1546
1503 1502 1500 1500 1500 1501 1503 1505 1506 1507 1509 1510 1512 1513 1513 1513 1507 1504 1505 1506 1507 1508 1509 1511 1513 1512 1511 1510 1511 1515 1513 1513 1515 1517 1519 1519 1520 1522 1523 1522 1528 1531 1536 1539 1543
1499 1498 1498 1497 1498 1499 1501 1503 1504 1506 1508 1510 1511 1512 1512 1512 1504 1504 1505 1505 1506 1506 1505 1506 1506 1508 1505 1506 1509 1510 1511 1514 1515 1518 1519 1520 1521 1521 1525 1525 1528 1530 1534 1538 1541
1497 1496 1495 1495 1496 1498 1500 1502 1505 1506 1508 1510 1511 1511 1511 1505 1504 1504 1504 1505 1505 1504 1503 1504 1502 1504 1501 1501 1506 1509 1516 1516 1517 1517 1518 1520 1525 1524 1525 1526 1528 1530 1533 1537 1539
1495 1494 1494 1494 1495 1498 1500 1503 1505 1506 1508 1509 1510 1510 1507 1503 1503 1502 1504 1503 1503 1504 1503 1504 1504 1502 1500 1503 1507 1512 1519 1530 1518 1517 1518 1520 1534 1522 1523 1525 1526 1529 1533 1535 1538
1494 1493 1493 1494 1496 1498 1500 1503 1506 1507 1508 1509 1510 1510 1505 1502 1502 1502 1503 1502 1503 1503 1503 1503 1503 1502 1504 1513 1522 1523 1534 1529 1523 1517 1518 1522 1526 1521 1523 1525 1525 1529 1536 1539 1541
1492 1492 1492 1493 1496 1499 1502 1505 1506 1508 1509 1509 1509 1513 1505 1502 1502 1502 1503 1503 1504 1503 1503 1503 1504 1509 1514 1521 1540 1533 1530 1529 1528 1520 1519 1526 1526 1523 1524 1527 1531 1534 1537 1540 1541
1492 1493 1492 1494 1498 1501 1504 1506 1510 1510 1507 1504 1505 1503 1501 1502 1502 1503 1504 1505 1504 1505 1509 1508 1516 1525 1516 1514 1515 1518 1520 1523 1518 1516 1519 1529 1534 1532 1529 1530 1535 1537 1540 1544 1545
1493 1493 1494 1497 1500 1503 1505 1506 1507 1510 1506 1503 1502 1501 1502 1502 1503 1503 1505 1506 1506 1510 1511 1518 1524 1514 1513 1513 1515 1516 1521 1526 1519 1516 1522 1536 1544 1540 1534 1538 1536 1538 1542 1545 1547
1493 1494 1496 1499 1502 1504 1505 1506 1507 1507 1506 1502 1501 1501 1502 1503 1503 1504 1506 1506 1506 1510 1513 1522 1517 1512 1516 1520 1521 1526 1527 1527 1527 1523 1528 1534 1551 1548 1546 1543 1542 1544 1545 1547 1548
1494 1496 1498 1500 1505 1504 1506 1506 1507 1506 1516 1506 1502 1502 1503 1502 1504 1505 1505 1507 1506 1514 1513 1516 1514 1516 1520 1523 1523 1530 1523 1524 1526 1533 1548 1530 1573 1557 1553 1550 1547 1548 1548 1549 1552
1494 1497 1498 1502 1503 1505 1506 1506 1506 1506 1548 1505 1502 1503 1502 1504 1505 1505 1505 1505 1508 1509 1514 1524 1520 1523 1524 1523 1520 1525 1518 1521 1523 1533 1536 1538 1560 1561 1553 1554 1552 1551 1551 1551 1552
1495 1496 1498 1501 1503 1505 1505 1505 1506 1526 1535 1504 1500 1502 1503 1503 1504 1505 1506 1507 1509 1511 1513 1518 1518 1520 1520 1518 1518 1518 1521 1528 1531 1539 1563 1540 1549 1561 1556 1550 1553 1553 1552 1553 1554
1494 1496 1499 1502 1504 1504 1504 1504 1524 1537 1501 1505 1503 1502 1503 1505 1505 1507 1512 1517 1523 1530 1529 1524 1525 1521 1519 1522 1520 1522 1533 1564 1566 1576 1571 1539 1552 1555 1547 1547 1546 1551 1553 1554 1555
1494 1496 1499 1502 1503 1504 1504 1507 1521 1505 1502 1495 1498 1502 1507 1505 1511 1512 1515 1525 1519 1520 1532 1539 1550 1527 1522 1524 1527 1526 1534 1563 1567 1582 1563 1545 1561 1558 1548 1547 1550 1552 1553 1553 1554
1494 1497 1499 1502 1503 1504 1505 1528 1517 1504 1493 1496 1500 1509 1509 1505 1511 1515 1522 1526 1523 1522 1531 1538 1539 1526 1524 1523 1525 1529 1543 1534 1558 1571 1573 1564 1556 1552 1549 1549 1549 1553 1553 1555 1557
1493 1496 1499 1502 1503 1504 1509 1516 1502 1493 1491 1492 1506 1504 1513 1510 1512 1517 1522 1523 1523 1521 1519 1525 1540 1527 1524 1522 1523 1526 1528 1550 1561 1571 1580 1569 1559 1560 1553 1550 1550 1551 1551 1554 1558
1492 1496 1498 1501 1503 1504 1518 1510 1496 1492 1491 1495 1500 1503 1505 1511 1511 1519 1526 1525 1523 1522 1520 1523 1532 1538 1530 1535 1537 1536 1539 1543 1552 1570 1581 1591 1571 1549 1548 1550 1552 1553 1554 1555 1558
1490 1495 1496 1499 1504 1506 1508 1499 1493 1494 1494 1495 1496 1497 1501 1507 1517 1523 1527 1526 1523 1523 1526 1527 1540 1560 1539 1531 1529 1530 1537 1546 1573 1562 1582 1588 1573 1548 1547 1549 1551 1554 1555 1557 1558
1488 1492 1495 1498 1511 1514 1500 1496 1494 1495 1496 1496 1499 1498 1500 1508 1524 1523 1526 1527 1524 1525 1528 1529 1545 1566 1553 1543 1534 1535 1535 1542 1553 1567 1568 1589 1575 1548 1550 1550 1553 1554 1557 1558 1558
1486 1494 1495 1497 1498 1500 1501 1497 1497 1496 1497 1497 1499 1499 1503 1511 1514 1524 1527 1527 1526 1527 1528 1529 1540 1547 1561 1547 1544 1540 1538 1542 1549 1574 1566 1569 1552 1552 1553 1552 1554 1555 1555 1555 1555
1482 1484 1486 1501 1499 1497 1498 1496 1498 1500 1498 1498 1501 1502 1506 1516 1519 1526 1526 1528 1529 1529 1530 1532 1545 1545 1543 1543 1541 1539 1541 1543 1545 1548 1557 1550 1550 1550 1551 1551 1552 1552 1552 1553 1554
1480 1481 1484 1486 1490 1495 1496 1497 1498 1499 1499 1502 1503 1505 1506 1517 1517 1525 1524 1528 1529 1530 1533 1537 1552 1551 1545 1546 1548 1544 1542 1541 1541 1538 1540 1546 1552 1549 1550 1551 1553 1553 1552 1552 1552
1478 1479 1481 1486 1491 1496 1496 1493 1496 1496 1500 1501 1505 1510 1515 1516 1514 1517 1520 1522 1525 1531 1540 1546 1557 1562 1561 1560 1557 1560 1539 1535 1534 1537 1535 1547 1545 1549 1551 1551 1551 1551 1551 1550 1550